DAL1177 KSLC-KSAN

Flight info

Callsign DAL1177
Flight time 2h 0m
Altitude 36000
Route ARCHZ1 WINEN LAKRR Q73 LVELL LUCKI1
Aircraft B752/M-SDE2E3FGHIJ3J4J7RWXY/LB1

Departure

Time 2026-05-07 23:36
Airport Salt Lake City International Airport (KSLC)

Arrival

Time 2026-05-08 01:37
Airport San Diego International Airport (KSAN)
Time Latitude Longitude Altitude Speed Heading
2026-05-07 22:58 40.78489 -111.98931 4230 ft 0 kts 355°
2026-05-07 23:20 40.78488 -111.98931 4229 ft 1 kts 355°
2026-05-07 23:20 40.78470 -111.98930 4230 ft 2 kts 355°
2026-05-07 23:21 40.78451 -111.98927 4230 ft 2 kts 355°
2026-05-07 23:21 40.78434 -111.98926 4230 ft 0 kts 355°
2026-05-07 23:26 40.78435 -111.98926 4230 ft 0 kts 355°
2026-05-07 23:26 40.78439 -111.98928 4230 ft 1 kts 335°
2026-05-07 23:26 40.78444 -111.98937 4230 ft 2 kts 291°
2026-05-07 23:27 40.78428 -111.99033 4229 ft 8 kts 258°
2026-05-07 23:27 40.78419 -111.99108 4229 ft 8 kts 263°
2026-05-07 23:27 40.78411 -111.99199 4229 ft 10 kts 266°
2026-05-07 23:28 40.78408 -111.99288 4229 ft 8 kts 268°
2026-05-07 23:28 40.78405 -111.99361 4228 ft 7 kts 256°
2026-05-07 23:28 40.78374 -111.99411 4228 ft 7 kts 210°
2026-05-07 23:28 40.78322 -111.99424 4228 ft 7 kts 180°
2026-05-07 23:29 40.78267 -111.99420 4228 ft 8 kts 175°
2026-05-07 23:29 40.78192 -111.99411 4228 ft 11 kts 175°
2026-05-07 23:29 40.78106 -111.99410 4228 ft 12 kts 188°
2026-05-07 23:29 40.78015 -111.99434 4228 ft 13 kts 187°
2026-05-07 23:30 40.77927 -111.99435 4228 ft 11 kts 175°
2026-05-07 23:30 40.77851 -111.99426 4230 ft 11 kts 175°
2026-05-07 23:30 40.77752 -111.99414 4230 ft 18 kts 174°
2026-05-07 23:30 40.77646 -111.99401 4230 ft 10 kts 175°
2026-05-07 23:31 40.77593 -111.99396 4231 ft 6 kts 175°
2026-05-07 23:31 40.77557 -111.99396 4232 ft 4 kts 192°
2026-05-07 23:31 40.77551 -111.99398 4232 ft 0 kts 196°
2026-05-07 23:31 40.77551 -111.99399 4232 ft 0 kts 196°
2026-05-07 23:34 40.77544 -111.99402 4232 ft 2 kts 205°
2026-05-07 23:34 40.77528 -111.99437 4231 ft 6 kts 265°
2026-05-07 23:34 40.77529 -111.99494 4231 ft 6 kts 269°
2026-05-07 23:35 40.77551 -111.99548 4231 ft 6 kts 334°
2026-05-07 23:35 40.77578 -111.99556 4231 ft 3 kts 352°
2026-05-07 23:35 40.77694 -111.99573 4231 ft 43 kts 355°
2026-05-07 23:35 40.78234 -111.99635 4228 ft 110 kts 354°
2026-05-07 23:36 40.79197 -111.99747 4229 ft 169 kts 354°
2026-05-07 23:36 40.80500 -111.99895 4500 ft 204 kts 355°
2026-05-07 23:36 40.81932 -112.00043 5383 ft 213 kts 354°
2026-05-07 23:36 40.83403 -112.00176 6235 ft 212 kts 354°
2026-05-07 23:37 40.84863 -112.00652 6419 ft 227 kts 327°
2026-05-07 23:37 40.85974 -112.02177 6569 ft 246 kts 294°
2026-05-07 23:37 40.86330 -112.04444 6852 ft 263 kts 266°
2026-05-07 23:37 40.86047 -112.06870 7249 ft 276 kts 260°
2026-05-07 23:38 40.85639 -112.09349 7932 ft 277 kts 254°
2026-05-07 23:38 40.84729 -112.11565 8590 ft 282 kts 232°
2026-05-07 23:38 40.83451 -112.13506 9310 ft 283 kts 233°
2026-05-07 23:38 40.82202 -112.15556 9950 ft 287 kts 236°
2026-05-07 23:39 40.80986 -112.17606 10703 ft 286 kts 236°
2026-05-07 23:39 40.79774 -112.19685 11314 ft 290 kts 237°
2026-05-07 23:39 40.78559 -112.21784 12002 ft 291 kts 237°
2026-05-07 23:39 40.77321 -112.23937 12627 ft 294 kts 238°
2026-05-07 23:40 40.75988 -112.25932 13241 ft 301 kts 224°
2026-05-07 23:40 40.74155 -112.27355 13863 ft 312 kts 205°
2026-05-07 23:40 40.71985 -112.28022 14319 ft 326 kts 193°
2026-05-07 23:40 40.69783 -112.28451 14950 ft 326 kts 194°
2026-05-07 23:41 40.67516 -112.28922 15418 ft 332 kts 194°
2026-05-07 23:41 40.65196 -112.29398 15820 ft 342 kts 194°
2026-05-07 23:41 40.62796 -112.29891 15888 ft 361 kts 194°
2026-05-07 23:41 40.60234 -112.30414 16051 ft 378 kts 193°
2026-05-07 23:42 40.57663 -112.30932 16676 ft 379 kts 194°
2026-05-07 23:42 40.55079 -112.31707 17096 ft 381 kts 203°
2026-05-07 23:42 40.52565 -112.32762 17682 ft 384 kts 202°
2026-05-07 23:42 40.49983 -112.33820 18153 ft 389 kts 203°
2026-05-07 23:43 40.47411 -112.34871 18774 ft 389 kts 203°
2026-05-07 23:43 40.44794 -112.35944 19173 ft 396 kts 202°
2026-05-07 23:43 40.42165 -112.37015 19748 ft 398 kts 202°
2026-05-07 23:43 40.39515 -112.38098 20174 ft 404 kts 202°
2026-05-07 23:44 40.36844 -112.39187 20733 ft 405 kts 202°
2026-05-07 23:44 40.34126 -112.40295 21159 ft 410 kts 202°
2026-05-07 23:44 40.31419 -112.41396 21663 ft 412 kts 202°
2026-05-07 23:44 40.28645 -112.42525 22086 ft 417 kts 202°
2026-05-07 23:45 40.25883 -112.43649 22533 ft 420 kts 202°
2026-05-07 23:45 40.23059 -112.44795 22977 ft 424 kts 202°
2026-05-07 23:45 40.20231 -112.45946 23178 ft 433 kts 202°
2026-05-07 23:45 40.17461 -112.47403 23173 ft 426 kts 212°
2026-05-07 23:46 40.14858 -112.49197 23165 ft 418 kts 213°
2026-05-07 23:46 40.12318 -112.50959 23167 ft 416 kts 213°
2026-05-07 23:46 40.09760 -112.52748 23171 ft 421 kts 213°
2026-05-07 23:46 40.07145 -112.54580 23170 ft 423 kts 213°
2026-05-07 23:47 40.04559 -112.56391 23172 ft 422 kts 213°
2026-05-07 23:47 40.01997 -112.58188 23177 ft 422 kts 213°
2026-05-07 23:47 39.99402 -112.60007 23170 ft 420 kts 213°
2026-05-07 23:47 39.96827 -112.61812 23175 ft 421 kts 213°
2026-05-07 23:48 39.94257 -112.63612 23171 ft 422 kts 213°
2026-05-07 23:48 39.91682 -112.65414 23164 ft 422 kts 212°
2026-05-07 23:48 39.89095 -112.67222 23164 ft 422 kts 212°
2026-05-07 23:48 39.86509 -112.69028 23152 ft 421 kts 212°
2026-05-07 23:49 39.83942 -112.70821 23149 ft 421 kts 212°
2026-05-07 23:49 39.81339 -112.72636 23143 ft 421 kts 212°
2026-05-07 23:49 39.78751 -112.74439 23135 ft 423 kts 212°
2026-05-07 23:49 39.76180 -112.76229 23129 ft 423 kts 212°
2026-05-07 23:50 39.73580 -112.78037 23117 ft 424 kts 212°
2026-05-07 23:50 39.70978 -112.79845 23123 ft 423 kts 212°
2026-05-07 23:50 39.68368 -112.81551 23126 ft 425 kts 206°
2026-05-07 23:50 39.65544 -112.82828 23136 ft 429 kts 201°
2026-05-07 23:51 39.62710 -112.83984 23128 ft 431 kts 201°
2026-05-07 23:51 39.59839 -112.85151 23127 ft 430 kts 201°
2026-05-07 23:51 39.56991 -112.86296 23132 ft 430 kts 201°
2026-05-07 23:51 39.54130 -112.87442 23135 ft 430 kts 201°
2026-05-07 23:52 39.51281 -112.88579 23138 ft 429 kts 200°
2026-05-07 23:52 39.48432 -112.89713 23144 ft 429 kts 200°
2026-05-07 23:52 39.45521 -112.90569 23148 ft 433 kts 190°
2026-05-07 23:52 39.42495 -112.90768 23151 ft 437 kts 179°
2026-05-07 23:53 39.39495 -112.90288 23145 ft 439 kts 168°
2026-05-07 23:53 39.36564 -112.89130 23149 ft 440 kts 158°
2026-05-07 23:53 39.33844 -112.87343 23145 ft 439 kts 147°
2026-05-07 23:53 39.31434 -112.85010 23140 ft 438 kts 136°
2026-05-07 23:54 39.29346 -112.82140 23137 ft 437 kts 125°
2026-05-07 23:54 39.27707 -112.78904 23138 ft 433 kts 114°
2026-05-07 23:54 39.26528 -112.75333 23137 ft 427 kts 103°
2026-05-07 23:54 39.25880 -112.71667 23138 ft 422 kts 92°
2026-05-07 23:55 39.25686 -112.67922 23130 ft 419 kts 87°
2026-05-07 23:55 39.25587 -112.64163 23125 ft 418 kts 87°
2026-05-07 23:55 39.25481 -112.60442 23117 ft 418 kts 87°
2026-05-07 23:55 39.25375 -112.56702 23116 ft 418 kts 87°
2026-05-07 23:56 39.25268 -112.52968 23114 ft 418 kts 87°
2026-05-07 23:56 39.25171 -112.49203 23123 ft 418 kts 87°
2026-05-07 23:56 39.25251 -112.45509 23136 ft 413 kts 78°
2026-05-07 23:56 39.25838 -112.41892 23145 ft 407 kts 67°
2026-05-07 23:57 39.26898 -112.38594 23159 ft 401 kts 56°
2026-05-07 23:57 39.28426 -112.35603 23161 ft 394 kts 45°
2026-05-07 23:57 39.30318 -112.33115 23168 ft 389 kts 35°
2026-05-07 23:57 39.32531 -112.31162 23168 ft 384 kts 24°
2026-05-07 23:58 39.34988 -112.29817 23166 ft 378 kts 13°
2026-05-07 23:58 39.37540 -112.29152 23170 ft 374 kts
2026-05-07 23:58 39.40127 -112.29166 23160 ft 370 kts 351°
2026-05-07 23:58 39.42604 -112.29846 23159 ft 369 kts 340°
2026-05-07 23:59 39.44949 -112.31184 23147 ft 367 kts 330°
2026-05-07 23:59 39.47039 -112.33086 23148 ft 367 kts 322°
2026-05-07 23:59 39.49043 -112.35170 23133 ft 369 kts 322°
2026-05-07 23:59 39.51028 -112.37221 23125 ft 368 kts 322°
2026-05-08 00:00 39.53014 -112.39275 23124 ft 367 kts 322°
2026-05-08 00:00 39.55025 -112.41355 23127 ft 368 kts 322°
2026-05-08 00:00 39.57001 -112.43398 23138 ft 367 kts 322°
2026-05-08 00:00 39.59001 -112.45468 23147 ft 368 kts 322°
2026-05-08 00:01 39.60995 -112.47532 23143 ft 368 kts 322°
2026-05-08 00:01 39.62992 -112.49599 23146 ft 367 kts 322°
2026-05-08 00:01 39.64999 -112.51677 23133 ft 366 kts 322°
2026-05-08 00:01 39.66990 -112.53740 23141 ft 367 kts 322°
2026-05-08 00:02 39.69056 -112.55698 23141 ft 367 kts 329°
2026-05-08 00:02 39.71305 -112.57158 23152 ft 367 kts 337°
2026-05-08 00:02 39.73743 -112.58257 23146 ft 369 kts 342°
2026-05-08 00:02 39.76211 -112.59110 23146 ft 369 kts 345°
2026-05-08 00:03 39.78710 -112.59831 23147 ft 368 kts 347°
2026-05-08 00:03 39.81166 -112.60725 23153 ft 366 kts 337°
2026-05-08 00:03 39.83443 -112.62247 23167 ft 366 kts 326°
2026-05-08 00:03 39.85421 -112.64346 23167 ft 368 kts 315°
2026-05-08 00:04 39.87022 -112.66935 23166 ft 370 kts 304°
2026-05-08 00:04 39.88184 -112.69907 23170 ft 374 kts 293°
2026-05-08 00:04 39.88851 -112.73183 23170 ft 380 kts 279°
2026-05-08 00:04 39.88712 -112.76634 23185 ft 391 kts 261°
2026-05-08 00:05 39.87667 -112.79931 23171 ft 403 kts 242°
2026-05-08 00:05 39.85791 -112.82700 23163 ft 412 kts 223°
2026-05-08 00:05 39.83320 -112.84562 23166 ft 419 kts 204°
2026-05-08 00:05 39.80439 -112.85355 23166 ft 428 kts 184°
2026-05-08 00:06 39.77497 -112.85035 23166 ft 433 kts 171°
2026-05-08 00:06 39.74507 -112.84292 23127 ft 434 kts 171°
2026-05-08 00:06 39.71549 -112.83556 23133 ft 431 kts 171°
2026-05-08 00:06 39.68602 -112.82821 23141 ft 432 kts 171°
2026-05-08 00:07 39.65675 -112.82091 23140 ft 432 kts 171°
2026-05-08 00:07 39.62696 -112.81352 23135 ft 432 kts 171°
2026-05-08 00:07 39.59747 -112.80627 23134 ft 433 kts 171°
2026-05-08 00:07 39.56804 -112.79906 23138 ft 433 kts 171°
2026-05-08 00:08 39.53826 -112.79179 23130 ft 433 kts 171°
2026-05-08 00:08 39.50874 -112.78463 23132 ft 435 kts 171°
2026-05-08 00:08 39.47921 -112.77742 23130 ft 434 kts 171°
2026-05-08 00:08 39.44935 -112.77012 23126 ft 433 kts 171°
2026-05-08 00:09 39.41971 -112.76294 23122 ft 433 kts 171°
2026-05-08 00:09 39.39009 -112.75577 23116 ft 433 kts 170°
2026-05-08 00:09 39.36086 -112.74870 23115 ft 433 kts 170°
2026-05-08 00:09 39.33117 -112.74126 23114 ft 434 kts 166°
2026-05-08 00:10 39.30307 -112.72665 23147 ft 433 kts 147°
2026-05-08 00:10 39.28010 -112.70232 23148 ft 432 kts 128°
2026-05-08 00:10 39.26396 -112.67028 23151 ft 425 kts 109°
2026-05-08 00:10 39.25637 -112.63379 23155 ft 416 kts 90°
2026-05-08 00:11 39.25796 -112.59768 23148 ft 405 kts 71°
2026-05-08 00:11 39.26844 -112.56435 23146 ft 393 kts 51°
2026-05-08 00:11 39.28610 -112.53860 23139 ft 381 kts 32°
2026-05-08 00:11 39.30881 -112.52256 23137 ft 373 kts 13°
2026-05-08 00:12 39.33429 -112.51773 23138 ft 368 kts 355°
2026-05-08 00:12 39.35954 -112.52093 23109 ft 366 kts 350°
2026-05-08 00:12 39.38486 -112.52528 23104 ft 363 kts 350°
2026-05-08 00:12 39.40960 -112.52956 23105 ft 362 kts 350°
2026-05-08 00:13 39.43487 -112.53392 23108 ft 363 kts 350°
2026-05-08 00:13 39.45978 -112.53818 23102 ft 363 kts 350°
2026-05-08 00:13 39.48495 -112.54253 23107 ft 364 kts 351°
2026-05-08 00:13 39.51000 -112.54692 23120 ft 364 kts 350°
2026-05-08 00:14 39.53495 -112.55122 23121 ft 364 kts 350°
2026-05-08 00:14 39.56020 -112.55553 23126 ft 364 kts 350°
2026-05-08 00:14 39.58520 -112.55980 23134 ft 364 kts 350°
2026-05-08 00:14 39.61026 -112.56411 23135 ft 364 kts 349°
2026-05-08 00:15 39.63479 -112.57264 23154 ft 362 kts 335°
2026-05-08 00:15 39.65610 -112.58938 23159 ft 363 kts 320°
2026-05-08 00:15 39.67319 -112.61362 23157 ft 366 kts 305°
2026-05-08 00:15 39.68436 -112.64320 23187 ft 376 kts 291°
2026-05-08 00:16 39.68979 -112.67681 23663 ft 385 kts 279°
2026-05-08 00:16 39.68990 -112.71175 24196 ft 393 kts 269°
2026-05-08 00:16 39.68478 -112.74701 24557 ft 405 kts 258°
2026-05-08 00:16 39.67447 -112.78193 24620 ft 425 kts 248°
2026-05-08 00:17 39.65888 -112.81454 25117 ft 433 kts 238°
2026-05-08 00:17 39.63867 -112.84386 25535 ft 442 kts 227°
2026-05-08 00:17 39.61437 -112.86877 25964 ft 451 kts 217°
2026-05-08 00:17 39.58681 -112.88825 26351 ft 460 kts 206°
2026-05-08 00:18 39.55580 -112.89908 26718 ft 470 kts 188°
2026-05-08 00:18 39.52290 -112.89832 27085 ft 477 kts 173°
2026-05-08 00:18 39.49022 -112.89079 27483 ft 479 kts 171°
2026-05-08 00:18 39.45757 -112.88286 27821 ft 482 kts 171°
2026-05-08 00:19 39.42457 -112.87483 28263 ft 483 kts 171°
2026-05-08 00:19 39.39115 -112.86672 28558 ft 487 kts 171°
2026-05-08 00:19 39.35830 -112.85874 28933 ft 489 kts 171°
2026-05-08 00:19 39.32455 -112.85053 29235 ft 492 kts 171°
2026-05-08 00:20 39.29104 -112.84246 29570 ft 495 kts 171°
2026-05-08 00:20 39.25711 -112.83426 29977 ft 495 kts 171°
2026-05-08 00:20 39.22357 -112.82617 30833 ft 484 kts 171°
2026-05-08 00:20 39.19079 -112.81821 31136 ft 486 kts 171°
2026-05-08 00:21 39.15734 -112.81012 31391 ft 489 kts 171°
2026-05-08 00:21 39.12409 -112.80203 31692 ft 491 kts 170°
2026-05-08 00:21 39.09057 -112.79392 32056 ft 490 kts 171°
2026-05-08 00:21 39.05703 -112.78587 32467 ft 488 kts 171°
2026-05-08 00:22 39.02385 -112.77788 32809 ft 488 kts 170°
2026-05-08 00:22 38.99023 -112.76984 33225 ft 486 kts 171°
2026-05-08 00:22 38.95723 -112.76199 33645 ft 484 kts 170°
2026-05-08 00:22 38.92441 -112.75419 33962 ft 484 kts 170°
2026-05-08 00:23 38.89137 -112.74635 34339 ft 482 kts 170°
2026-05-08 00:23 38.85838 -112.73855 34658 ft 481 kts 170°
2026-05-08 00:23 38.82562 -112.73081 34895 ft 482 kts 170°
2026-05-08 00:23 38.79239 -112.72296 35257 ft 480 kts 170°
2026-05-08 00:24 38.75996 -112.71539 35508 ft 480 kts 170°
2026-05-08 00:24 38.72705 -112.70776 35785 ft 480 kts 170°
2026-05-08 00:24 38.69441 -112.70019 36072 ft 479 kts 170°
2026-05-08 00:24 38.66140 -112.69253 36206 ft 477 kts 170°
2026-05-08 00:25 38.59692 -112.67776 36229 ft 468 kts 170°
2026-05-08 00:25 38.53320 -112.66312 36254 ft 462 kts 170°
2026-05-08 00:26 38.46989 -112.64864 36273 ft 465 kts 170°
2026-05-08 00:26 38.40627 -112.63417 36271 ft 464 kts 170°
2026-05-08 00:27 38.34273 -112.62041 36283 ft 463 kts 173°
2026-05-08 00:27 38.27887 -112.61436 36283 ft 461 kts 184°
2026-05-08 00:28 38.21683 -112.63010 36301 ft 457 kts 204°
2026-05-08 00:28 38.16284 -112.67026 36288 ft 448 kts 224°
2026-05-08 00:29 38.12338 -112.72961 36267 ft 436 kts 245°
2026-05-08 00:29 38.10292 -112.80031 36250 ft 426 kts 265°
2026-05-08 00:30 38.10155 -112.87389 36245 ft 418 kts 277°
2026-05-08 00:30 38.10408 -112.94754 36224 ft 417 kts 276°
2026-05-08 00:31 38.10575 -113.02092 36226 ft 419 kts 270°
2026-05-08 00:31 38.09304 -113.09365 36225 ft 432 kts 254°
2026-05-08 00:32 38.06953 -113.16412 36218 ft 434 kts 249°
2026-05-08 00:32 38.04321 -113.23260 36216 ft 435 kts 247°
2026-05-08 00:33 38.01566 -113.30084 36212 ft 437 kts 247°
2026-05-08 00:33 37.98770 -113.36880 36212 ft 436 kts 246°
2026-05-08 00:34 37.95876 -113.43634 36220 ft 439 kts 240°
2026-05-08 00:34 37.91687 -113.49342 36237 ft 454 kts 220°
2026-05-08 00:35 37.86030 -113.53144 36228 ft 467 kts 202°
2026-05-08 00:35 37.79865 -113.55841 36205 ft 470 kts 201°
2026-05-08 00:36 37.73725 -113.58518 36209 ft 468 kts 201°
2026-05-08 00:36 37.67544 -113.61202 36220 ft 473 kts 201°
2026-05-08 00:37 37.61310 -113.63902 36228 ft 479 kts 201°
2026-05-08 00:38 37.51814 -113.68004 36231 ft 482 kts 200°
2026-05-08 00:38 37.45455 -113.70743 36220 ft 482 kts 200°
2026-05-08 00:39 37.39097 -113.73478 36198 ft 483 kts 200°
2026-05-08 00:39 37.32769 -113.76196 36170 ft 483 kts 200°
2026-05-08 00:40 37.26442 -113.78906 36154 ft 483 kts 200°
2026-05-08 00:40 37.20064 -113.81635 36136 ft 482 kts 200°
2026-05-08 00:41 37.13749 -113.84332 36110 ft 483 kts 200°
2026-05-08 00:41 37.07396 -113.87041 36072 ft 484 kts 200°
2026-05-08 00:42 37.01025 -113.89753 36045 ft 484 kts 199°
2026-05-08 00:42 36.94644 -113.92463 36011 ft 483 kts 199°
2026-05-08 00:43 36.88304 -113.95152 35987 ft 484 kts 199°
2026-05-08 00:43 36.81913 -113.97857 35977 ft 482 kts 199°
2026-05-08 00:44 36.75585 -114.00530 35953 ft 484 kts 199°
2026-05-08 00:44 36.69184 -114.03231 35979 ft 483 kts 199°
2026-05-08 00:45 36.62825 -114.05909 36000 ft 485 kts 199°
2026-05-08 00:45 36.56440 -114.08593 36010 ft 483 kts 199°
2026-05-08 00:46 36.50055 -114.11272 36018 ft 483 kts 199°
2026-05-08 00:46 36.43696 -114.13936 36009 ft 483 kts 199°
2026-05-08 00:47 36.37328 -114.16599 36008 ft 483 kts 199°
2026-05-08 00:47 36.30987 -114.19246 36018 ft 484 kts 199°
2026-05-08 00:48 36.24578 -114.21917 36036 ft 484 kts 199°
2026-05-08 00:48 36.18238 -114.24554 36039 ft 484 kts 199°
2026-05-08 00:49 36.11914 -114.27370 36012 ft 483 kts 206°
2026-05-08 00:49 36.06366 -114.32015 35998 ft 480 kts 226°
2026-05-08 00:50 36.01823 -114.38019 35961 ft 478 kts 230°
2026-05-08 00:50 35.97380 -114.44084 35954 ft 478 kts 230°
2026-05-08 00:51 35.92932 -114.50203 35961 ft 479 kts 230°
2026-05-08 00:51 35.88501 -114.56305 35958 ft 479 kts 230°
2026-05-08 00:52 35.84083 -114.62386 35965 ft 479 kts 230°
2026-05-08 00:52 35.79646 -114.68482 35950 ft 479 kts 230°
2026-05-08 00:53 35.75204 -114.74575 35944 ft 478 kts 230°
2026-05-08 00:53 35.70766 -114.80651 35946 ft 478 kts 230°
2026-05-08 00:54 35.66325 -114.86723 35965 ft 478 kts 230°
2026-05-08 00:54 35.61876 -114.92813 35988 ft 478 kts 230°
2026-05-08 00:55 35.57456 -114.98852 36012 ft 478 kts 230°
2026-05-08 00:55 35.52912 -115.04780 36044 ft 479 kts 222°
2026-05-08 00:56 35.47291 -115.09133 36060 ft 482 kts 202°
2026-05-08 00:56 35.40980 -115.11974 36053 ft 481 kts 199°
2026-05-08 00:57 35.34697 -115.14663 36062 ft 480 kts 199°
2026-05-08 00:57 35.28378 -115.17321 36076 ft 482 kts 199°
2026-05-08 00:58 35.22030 -115.19972 36097 ft 483 kts 199°
2026-05-08 00:58 35.15644 -115.22629 36088 ft 485 kts 198°
2026-05-08 00:59 35.09082 -115.24619 36071 ft 487 kts 192°
2026-05-08 00:59 35.02480 -115.26435 36061 ft 489 kts 192°
2026-05-08 01:00 34.95837 -115.28243 36042 ft 491 kts 192°
2026-05-08 01:00 34.89148 -115.30056 36023 ft 493 kts 192°
2026-05-08 01:01 34.82442 -115.31869 35998 ft 494 kts 192°
2026-05-08 01:01 34.75809 -115.34044 35982 ft 496 kts 198°
2026-05-08 01:02 34.69284 -115.36684 35966 ft 497 kts 198°
2026-05-08 01:02 34.62734 -115.39342 35949 ft 498 kts 198°
2026-05-08 01:03 34.56119 -115.42028 35930 ft 499 kts 198°
2026-05-08 01:03 34.49569 -115.44685 35913 ft 501 kts 199°
2026-05-08 01:04 34.42990 -115.47546 35918 ft 501 kts 206°
2026-05-08 01:04 34.36891 -115.51549 35920 ft 501 kts 208°
2026-05-08 01:05 34.30717 -115.55469 35948 ft 501 kts 208°
2026-05-08 01:05 34.24530 -115.59301 35976 ft 502 kts 208°
2026-05-08 01:06 34.18145 -115.62794 35607 ft 510 kts 202°
2026-05-08 01:06 34.14828 -115.64373 35286 ft 515 kts 202°
2026-05-08 01:06 34.11473 -115.65970 34592 ft 510 kts 201°
2026-05-08 01:07 34.05003 -115.69035 34703 ft 501 kts 201°
2026-05-08 01:07 33.98564 -115.72071 34687 ft 491 kts 201°
2026-05-08 01:08 33.92345 -115.75001 34727 ft 462 kts 201°
2026-05-08 01:08 33.89438 -115.76420 34746 ft 444 kts 202°
2026-05-08 01:08 33.86561 -115.77835 33940 ft 449 kts 202°
2026-05-08 01:08 33.83651 -115.79263 33162 ft 459 kts 202°
2026-05-08 01:09 33.80660 -115.80728 32388 ft 466 kts 202°
2026-05-08 01:09 33.77690 -115.82182 31618 ft 468 kts 202°
2026-05-08 01:09 33.74684 -115.83607 30834 ft 466 kts 201°
2026-05-08 01:09 33.71640 -115.85030 30052 ft 467 kts 201°
2026-05-08 01:10 33.68618 -115.86445 29281 ft 469 kts 201°
2026-05-08 01:10 33.65596 -115.87858 28711 ft 464 kts 201°
2026-05-08 01:10 33.62660 -115.89232 28334 ft 444 kts 201°
2026-05-08 01:10 33.59793 -115.90570 27765 ft 441 kts 201°
2026-05-08 01:11 33.56963 -115.91892 27328 ft 437 kts 201°
2026-05-08 01:11 33.54225 -115.93461 26748 ft 435 kts 212°
2026-05-08 01:11 33.51771 -115.95551 26183 ft 428 kts 223°
2026-05-08 01:11 33.49745 -115.98096 25140 ft 425 kts 234°
2026-05-08 01:12 33.47978 -116.00889 24448 ft 417 kts 235°
2026-05-08 01:12 33.46283 -116.03639 23529 ft 414 kts 236°
2026-05-08 01:12 33.44630 -116.06393 22549 ft 406 kts 237°
2026-05-08 01:12 33.43015 -116.09123 21525 ft 400 kts 237°
2026-05-08 01:13 33.41449 -116.11788 21051 ft 386 kts 237°
2026-05-08 01:13 33.39908 -116.14426 20532 ft 393 kts 237°
2026-05-08 01:13 33.38332 -116.17127 20033 ft 394 kts 237°
2026-05-08 01:13 33.36789 -116.19771 19655 ft 388 kts 237°
2026-05-08 01:14 33.35229 -116.22428 19088 ft 389 kts 234°
2026-05-08 01:14 33.33385 -116.24739 18524 ft 390 kts 218°
2026-05-08 01:14 33.31107 -116.26433 18094 ft 385 kts 206°
2026-05-08 01:14 33.28705 -116.27880 17661 ft 382 kts 206°
2026-05-08 01:15 33.26354 -116.29294 17216 ft 379 kts 206°
2026-05-08 01:15 33.23998 -116.30691 16773 ft 376 kts 206°
2026-05-08 01:15 33.21662 -116.32069 16383 ft 372 kts 206°
2026-05-08 01:15 33.19347 -116.33430 15981 ft 369 kts 206°
2026-05-08 01:16 33.17032 -116.34786 15564 ft 367 kts 206°
2026-05-08 01:16 33.14756 -116.36118 15123 ft 365 kts 206°
2026-05-08 01:16 33.12488 -116.37444 14697 ft 363 kts 206°
2026-05-08 01:16 33.10237 -116.38760 14301 ft 360 kts 206°
2026-05-08 01:17 33.07973 -116.40081 13862 ft 358 kts 206°
2026-05-08 01:17 33.05740 -116.41385 13412 ft 357 kts 206°
2026-05-08 01:17 33.03550 -116.42661 12998 ft 355 kts 206°
2026-05-08 01:17 33.01337 -116.43968 12672 ft 350 kts 209°
2026-05-08 01:18 32.99356 -116.45653 12151 ft 350 kts 221°
2026-05-08 01:18 32.97525 -116.47501 11768 ft 347 kts 221°
2026-05-08 01:18 32.95670 -116.49355 11383 ft 344 kts 221°
2026-05-08 01:18 32.93859 -116.51174 10992 ft 341 kts 221°
2026-05-08 01:19 32.92061 -116.52984 10604 ft 338 kts 221°
2026-05-08 01:19 32.90273 -116.54783 10234 ft 334 kts 221°
2026-05-08 01:19 32.88540 -116.56529 10215 ft 318 kts 222°
2026-05-08 01:19 32.86890 -116.58189 10168 ft 304 kts 222°
2026-05-08 01:20 32.85304 -116.59785 10062 ft 294 kts 222°
2026-05-08 01:20 32.83718 -116.61384 9624 ft 301 kts 222°
2026-05-08 01:20 32.82132 -116.62981 9365 ft 296 kts 222°
2026-05-08 01:20 32.80582 -116.64558 9028 ft 295 kts 226°
2026-05-08 01:21 32.79369 -116.66464 8877 ft 281 kts 247°
2026-05-08 01:21 32.78792 -116.68661 8309 ft 286 kts 267°
2026-05-08 01:21 32.78863 -116.71007 7916 ft 282 kts 280°
2026-05-08 01:21 32.79134 -116.73270 7579 ft 280 kts 280°
2026-05-08 01:22 32.79413 -116.75547 7274 ft 276 kts 281°
2026-05-08 01:22 32.79659 -116.77786 6987 ft 273 kts 274°
2026-05-08 01:22 32.79731 -116.79986 6955 ft 262 kts 283°
2026-05-08 01:22 32.80394 -116.82010 7018 ft 267 kts 305°
2026-05-08 01:23 32.81681 -116.83615 6988 ft 270 kts 326°
2026-05-08 01:23 32.83368 -116.84518 6964 ft 266 kts 347°
2026-05-08 01:23 32.85206 -116.84590 6978 ft 269 kts
2026-05-08 01:23 32.86981 -116.83833 6987 ft 274 kts 26°
2026-05-08 01:24 32.88541 -116.82515 6967 ft 276 kts 44°
2026-05-08 01:24 32.89609 -116.80635 6985 ft 281 kts 65°
2026-05-08 01:24 32.90046 -116.78352 6959 ft 287 kts 86°
2026-05-08 01:24 32.89759 -116.75997 6987 ft 292 kts 108°
2026-05-08 01:25 32.88784 -116.73875 6980 ft 296 kts 129°
2026-05-08 01:25 32.87236 -116.72272 6989 ft 296 kts 150°
2026-05-08 01:25 32.85325 -116.71407 6968 ft 295 kts 171°
2026-05-08 01:25 32.83285 -116.71368 6973 ft 294 kts 189°
2026-05-08 01:26 32.81246 -116.71746 6970 ft 295 kts 191°
2026-05-08 01:26 32.79255 -116.72087 6954 ft 286 kts 183°
2026-05-08 01:26 32.77324 -116.71793 6968 ft 270 kts 160°
2026-05-08 01:26 32.75737 -116.70764 6981 ft 256 kts 142°
2026-05-08 01:27 32.74353 -116.69478 6957 ft 252 kts 140°
2026-05-08 01:27 32.72955 -116.68164 6979 ft 255 kts 140°
2026-05-08 01:27 32.71558 -116.66853 6964 ft 254 kts 140°
2026-05-08 01:27 32.70133 -116.65663 6963 ft 251 kts 155°
2026-05-08 01:28 32.68469 -116.65139 6989 ft 250 kts 180°
2026-05-08 01:28 32.66766 -116.65430 6735 ft 247 kts 204°
2026-05-08 01:28 32.65337 -116.66496 6415 ft 241 kts 230°
2026-05-08 01:28 32.64417 -116.68120 6147 ft 235 kts 249°
2026-05-08 01:29 32.63761 -116.69879 5964 ft 228 kts 250°
2026-05-08 01:29 32.63203 -116.71587 5975 ft 221 kts 263°
2026-05-08 01:29 32.63173 -116.73397 5993 ft 225 kts 279°
2026-05-08 01:29 32.63388 -116.75264 5956 ft 227 kts 281°
2026-05-08 01:30 32.63612 -116.77112 5957 ft 223 kts 281°
2026-05-08 01:30 32.63829 -116.78916 5971 ft 223 kts 281°
2026-05-08 01:30 32.64049 -116.80749 5968 ft 224 kts 281°
2026-05-08 01:30 32.64261 -116.82561 5970 ft 222 kts 280°
2026-05-08 01:31 32.64609 -116.84298 5990 ft 207 kts 293°
2026-05-08 01:31 32.65094 -116.85857 5959 ft 199 kts 291°
2026-05-08 01:31 32.65542 -116.87440 5981 ft 205 kts 291°
2026-05-08 01:31 32.66003 -116.89078 5886 ft 217 kts 290°
2026-05-08 01:32 32.66461 -116.90811 5336 ft 223 kts 288°
2026-05-08 01:32 32.66882 -116.92568 4846 ft 221 kts 288°
2026-05-08 01:32 32.67295 -116.94260 4574 ft 209 kts 288°
2026-05-08 01:32 32.67707 -116.95927 4079 ft 212 kts 288°
2026-05-08 01:33 32.68115 -116.97585 3664 ft 209 kts 288°
2026-05-08 01:33 32.68509 -116.99185 3453 ft 198 kts 288°
2026-05-08 01:33 32.68906 -117.00798 3160 ft 208 kts 288°
2026-05-08 01:33 32.69309 -117.02434 2949 ft 206 kts 288°
2026-05-08 01:34 32.69716 -117.04090 2581 ft 212 kts 288°
2026-05-08 01:34 32.70125 -117.05759 2315 ft 204 kts 287°
2026-05-08 01:34 32.70502 -117.07303 2273 ft 186 kts 287°
2026-05-08 01:34 32.70855 -117.08736 2134 ft 176 kts 287°
2026-05-08 01:35 32.71193 -117.10118 1805 ft 171 kts 286°
2026-05-08 01:35 32.71521 -117.11456 1456 ft 167 kts 286°
2026-05-08 01:35 32.71841 -117.12740 1137 ft 161 kts 286°
2026-05-08 01:35 32.72149 -117.13979 859 ft 153 kts 285°
2026-05-08 01:36 32.72433 -117.15166 615 ft 144 kts 285°
2026-05-08 01:36 32.72706 -117.16262 405 ft 135 kts 286°
2026-05-08 01:36 32.72958 -117.17296 176 ft 128 kts 283°
2026-05-08 01:36 32.73218 -117.18396 53 ft 146 kts 285°
2026-05-08 01:37 32.73468 -117.19440 27 ft 101 kts 286°
2026-05-08 01:37 32.73599 -117.19974 23 ft 37 kts 287°
2026-05-08 01:37 32.73629 -117.20152 23 ft 15 kts 253°
2026-05-08 01:37 32.73572 -117.20217 23 ft 7 kts 202°
2026-05-08 01:38 32.73562 -117.20221 23 ft 0 kts 195°
2026-05-08 01:38 32.73559 -117.20222 23 ft 0 kts 195°
2026-05-08 01:38 32.73558 -117.20222 23 ft 0 kts 195°
2026-05-08 01:39 32.73557 -117.20222 23 ft 0 kts 195°
2026-05-08 01:39 32.73545 -117.20230 23 ft 3 kts 218°
2026-05-08 01:39 32.73521 -117.20265 23 ft 7 kts 238°
2026-05-08 01:39 32.73517 -117.20316 23 ft 0 kts 283°
2026-05-08 01:40 32.73521 -117.20338 23 ft 4 kts 283°
2026-05-08 01:40 32.73527 -117.20372 23 ft 0 kts 283°
2026-05-08 01:41 32.73528 -117.20377 23 ft 0 kts 283°
2026-05-08 01:41 32.73529 -117.20382 23 ft 0 kts 285°
2026-05-08 01:42 32.73529 -117.20383 23 ft 0 kts 285°
2026-05-08 01:42 32.73537 -117.20391 23 ft 2 kts 335°
2026-05-08 01:42 32.73556 -117.20373 23 ft 6 kts 76°
2026-05-08 01:43 32.73550 -117.20316 23 ft 7 kts 106°
2026-05-08 01:43 32.73523 -117.20270 23 ft 6 kts 145°
2026-05-08 01:43 32.73479 -117.20254 23 ft 6 kts 183°
2026-05-08 01:43 32.73432 -117.20266 23 ft 7 kts 195°
2026-05-08 01:44 32.73387 -117.20277 23 ft 2 kts 182°
2026-05-08 01:44 32.73358 -117.20273 23 ft 5 kts 169°
2026-05-08 01:44 32.73346 -117.20269 23 ft 2 kts 166°
2026-05-08 01:44 32.73318 -117.20269 23 ft 4 kts 195°
2026-05-08 01:45 32.73293 -117.20287 23 ft 1 kts 219°
2026-05-08 01:45 32.73278 -117.20303 23 ft 4 kts 223°
2026-05-08 01:45 32.73262 -117.20320 23 ft 1 kts 223°
2026-05-08 01:45 32.73257 -117.20325 23 ft 1 kts 223°
2026-05-08 01:46 32.73256 -117.20327 23 ft 0 kts 223°